Regional Weather Roundup
Issued by NWS Cleveland, OH

Home | Current Version | Previous Version | Graphics & Text | Print | Product List | Glossary On
Versions: 1 2 3 4 5 6 7 8 9 10 11 12 13 14 15 16 17 18 19 20 21 22 23 24 25 26 27 28 29 30 31 32 33 34 35 36 37 38 39 40 41 42 43 44 45 46 47 48 49 50
000
ASUS41 KCLE 152212
RWRCLE
OHIO REGIONAL WEATHER ROUNDUP
NATIONAL WEATHER SERVICE WILMINGTON, OH
500 PM EST FRI DEC 15 2017

NOTE: "FAIR" INDICATES FEW OR NO CLOUDS BELOW 12,000 FEET WITH NO
SIGNIFICANT WEATHER AND/OR OBSTRUCTIONS TO VISIBILITY.

OHZ001>008-015>018-024>027-034-035-043-044-152300-
   NORTHWEST OHIO

CITY           SKY/WX    TMP DP  RH WIND       PRES   REMARKS
DEFIANCE       CLOUDY    27  15  61 W9G17     29.92R WCI  18
FINDLAY        CLOUDY    27  19  72 W17       29.91R WCI  14
TOLEDO EXPRESS CLOUDY    27  19  72 W16       29.89R WCI  15
TOLEDO EXEC    CLOUDY    27  19  72 SW10      29.90R WCI  17
LIMA           MOCLDY    26  17  68 W14G26    29.93R WCI  14
$$

OHZ009>014-019>023-028>033-038-089-152300-
   NORTHEAST OHIO

CITY           SKY/WX    TMP DP  RH WIND       PRES   REMARKS
CLE-HOPKINS    CLOUDY    27  19  72 W21       29.90R WCI  13
CLE-LAKEFRONT  FLURRIES  27  18  69 SW25G35   29.86S WCI  12
CUY CO. ARPT   CLOUDY    27  21  80 SW17G25   29.85S WCI  14
LORAIN-ELYRIA  CLOUDY    25  16  68 W20G30    29.88S WCI  11
ASHTABULA      LGT SNOW  24  19  81 SW14      29.82S WCI  12
AKRON-CANTON   LGT SNOW  25  19  78 SW15      29.86R VSB 1   WCI  13
WOOSTER        FLURRIES  25  19  78 W14G28    29.89R WCI  13
MANSFIELD      CLOUDY    25  19  78 W14G22    29.89R WCI  13
YOUNGSTOWN     LGT SNOW  24  17  74 SW10G20   29.84S WCI  14
$$

OHZ042-051>053-060>062-070>072-077>081-152300-
  SOUTHWEST OHIO

CITY           SKY/WX    TMP DP  RH WIND       PRES   REMARKS
CINC-COVINGTON CLOUDY    32  22  66 W10       30.02R WCI  24
CINC-LUNKEN    CLOUDY    34  22  61 W10       30.05R WCI  26
HAMILTON       CLOUDY    32  22  66 W14G20    30.04R WCI  22
DAYTON         CLOUDY    29  21  72 W18       29.98R WCI  16
WRIGHT-PAT AFB CLOUDY    30  20  65 W14G21    29.98R WCI  20
DAYTON GENERAL CLOUDY    30  20  66 W9        29.98R WCI  22
WILMINGTON     CLOUDY    30  21  69 W14       29.98R WCI  19
$$

OHZ036-037-039>041-045>050-054>059-063>069-073>076-082>088-152300-
  CENTRAL AND SOUTHEAST OHIO

CITY           SKY/WX    TMP DP  RH WIND       PRES   REMARKS
COLUMBUS       CLOUDY    31  20  63 W13       29.96R WCI  21
OSU AIRPORT    CLOUDY    29  21  72 W16G24    29.95R WCI  17
BOLTON FIELD   CLOUDY    30  19  64 W13G24    29.97R WCI  20
RICKENBACK AFB CLOUDY    30  20  64 W15       29.98R WCI  19
NEWARK         CLOUDY    30  20  66 W13G22    29.94R WCI  20
MARION         CLOUDY    27  20  75 W13       29.93  WCI  16
LANCASTER      CLOUDY    30  20  66 W16G22    29.97R WCI  19
ZANESVILLE     CLOUDY    30  18  60 SW10      29.94R WCI  21
NEW PHILLY     LGT SNOW  27  21  78 SW5       29.93R WCI  22
$$




USA.gov is the U.S. government's official web portal to all federal, state and local government web resources and services.